Hourly Weather Namangan

Today, 10 July, Friday

Time Temperature Precipitation Wind Pressure Humidity
00:00 +27°C° 0 mm 3 mps 718 mmHg 42%
01:00 +27°C° 0 mm 3 mps 717 mmHg 44%
02:00 +26°C° 0 mm 3 mps 717 mmHg 45%
03:00 +26°C° 0 mm 3 mps 717 mmHg 46%
04:00 +26°C° 0 mm 2 mps 717 mmHg 46%
05:00 +25°C° 0 mm 1 mps 717 mmHg 48%
06:00 +27°C° 0 mm 2 mps 718 mmHg 43%
07:00 +29°C° 0 mm 2 mps 718 mmHg 38%
08:00 +31°C° 0 mm 3 mps 718 mmHg 33%
09:00 +34°C° 0 mm 2 mps 718 mmHg 29%
10:00 +36°C° 0 mm 2 mps 718 mmHg 25%
11:00 +37°C° 0 mm 1 mps 719 mmHg 22%
12:00 +39°C° 0 mm 2 mps 719 mmHg 20%
13:00 +40°C° 0 mm 3 mps 719 mmHg 17%
14:00 +42°C° 0 mm 4 mps 719 mmHg 15%
15:00 +41°C° 0 mm 4 mps 718 mmHg 16%
16:00 +38°C° 0 mm 4 mps 718 mmHg 18%
17:00 +37°C° 0 mm 5 mps 718 mmHg 19%
18:00 +34°C° 0.3 mm 4 mps 718 mmHg 27%
19:00 +30°C° 0.3 mm 4 mps 719 mmHg 35%
20:00 +27°C° 0.3 mm 3 mps 719 mmHg 44%
21:00 +26°C° 0.3 mm 3 mps 719 mmHg 47%
22:00 +25°C° 0.3 mm 3 mps 719 mmHg 51%
23:00 +24°C° 0.3 mm 3 mps 719 mmHg 54%

Tomorrow, 11 July, Saturday

Time Temperature Precipitation Wind Pressure Humidity
00:00 +24°C° 0.3 mm 3 mps 719 mmHg 55%
01:00 +24°C° 0.3 mm 3 mps 719 mmHg 56%
02:00 +23°C° 0.3 mm 4 mps 719 mmHg 57%
03:00 +24°C° 0 mm 3 mps 719 mmHg 59%
04:00 +23°C° 0 mm 2 mps 719 mmHg 60%
05:00 +23°C° 0 mm 1 mps 719 mmHg 62%
06:00 +25°C° 0 mm 2 mps 719 mmHg 54%
07:00 +27°C° 0 mm 2 mps 719 mmHg 47%
08:00 +29°C° 0 mm 3 mps 719 mmHg 39%
09:00 +31°C° 0 mm 2 mps 719 mmHg 34%
10:00 +34°C° 0 mm 2 mps 719 mmHg 29%
11:00 +36°C° 0 mm 2 mps 719 mmHg 24%
12:00 +37°C° 0 mm 2 mps 718 mmHg 22%
13:00 +38°C° 0 mm 3 mps 718 mmHg 20%
14:00 +38°C° 0 mm 3 mps 718 mmHg 19%
15:00 +39°C° 0 mm 3 mps 718 mmHg 18%
16:00 +39°C° 0 mm 2 mps 718 mmHg 17%
17:00 +39°C° 0 mm 2 mps 718 mmHg 17%
18:00 +37°C° 0 mm 2 mps 718 mmHg 21%
19:00 +34°C° 0 mm 2 mps 718 mmHg 25%
20:00 +31°C° 0 mm 3 mps 718 mmHg 28%
21:00 +30°C° 0 mm 2 mps 718 mmHg 31%
22:00 +29°C° 0 mm 2 mps 718 mmHg 33%
23:00 +28°C° 0 mm 2 mps 718 mmHg 35%

Day after tomorrow, 12 July, Sunday

Time Temperature Precipitation Wind Pressure Humidity
00:00 +28°C° 0 mm 2 mps 717 mmHg 36%
01:00 +27°C° 0 mm 2 mps 717 mmHg 36%
02:00 +27°C° 0 mm 2 mps 717 mmHg 36%
03:00 +26°C° 0 mm 2 mps 717 mmHg 36%
04:00 +26°C° 0 mm 2 mps 716 mmHg 37%
05:00 +26°C° 0 mm 2 mps 716 mmHg 37%
06:00 +28°C° 0 mm 2 mps 716 mmHg 33%
07:00 +30°C° 0 mm 2 mps 717 mmHg 29%
08:00 +32°C° 0 mm 2 mps 717 mmHg 26%
09:00 +35°C° 0 mm 2 mps 717 mmHg 23%
10:00 +37°C° 0 mm 2 mps 717 mmHg 21%
11:00 +39°C° 0 mm 1 mps 717 mmHg 19%
12:00 +40°C° 0 mm 1 mps 717 mmHg 17%
13:00 +40°C° 0 mm 1 mps 716 mmHg 16%
14:00 +41°C° 0 mm 1 mps 716 mmHg 14%
15:00 +41°C° 0 mm 2 mps 716 mmHg 15%
16:00 +42°C° 0 mm 3 mps 716 mmHg 15%
17:00 +41°C° 0 mm 4 mps 716 mmHg 15%
18:00 +38°C° 0 mm 4 mps 716 mmHg 19%
19:00 +36°C° 0 mm 4 mps 716 mmHg 22%
20:00 +34°C° 0 mm 4 mps 716 mmHg 26%
21:00 +33°C° 0 mm 3 mps 716 mmHg 29%
22:00 +31°C° 0 mm 2 mps 716 mmHg 31%
23:00 +29°C° 0 mm 1 mps 717 mmHg 33%

13 July, Monday

Time Temperature Precipitation Wind Pressure Humidity
00:00 +29°C° 0 mm 1 mps 716 mmHg 33%
01:00 +29°C° 0 mm 2 mps 716 mmHg 34%
02:00 +28°C° 0 mm 2 mps 716 mmHg 34%
03:00 +28°C° 0 mm 2 mps 716 mmHg 35%
04:00 +28°C° 0 mm 2 mps 716 mmHg 35%
05:00 +29°C° 0 mm 3 mps 716 mmHg 35%
06:00 +30°C° 0.1 mm 2 mps 716 mmHg 33%
07:00 +32°C° 0.1 mm 2 mps 716 mmHg 30%
08:00 +33°C° 0.1 mm 1 mps 716 mmHg 28%
09:00 +36°C° 0 mm 2 mps 716 mmHg 25%
10:00 +37°C° 0 mm 3 mps 716 mmHg 22%
11:00 +40°C° 0 mm 4 mps 716 mmHg 19%
12:00 +40°C° 0 mm 4 mps 716 mmHg 18%
13:00 +41°C° 0 mm 4 mps 716 mmHg 17%
14:00 +42°C° 0 mm 4 mps 716 mmHg 16%
15:00 +42°C° 0 mm 3 mps 716 mmHg 15%
16:00 +42°C° 0 mm 3 mps 716 mmHg 15%
17:00 +42°C° 0 mm 3 mps 716 mmHg 15%
18:00 +38°C° 0 mm 3 mps 716 mmHg 20%
19:00 +35°C° 0 mm 4 mps 716 mmHg 25%
20:00 +33°C° 0 mm 4 mps 716 mmHg 30%
21:00 +32°C° 0 mm 4 mps 716 mmHg 32%
22:00 +30°C° 0 mm 3 mps 716 mmHg 33%
23:00 +29°C° 0 mm 3 mps 716 mmHg 35%

14 July, Tuesday

Time Temperature Precipitation Wind Pressure Humidity
00:00 +29°C° 0 mm 2 mps 716 mmHg 36%
01:00 +28°C° 0 mm 2 mps 716 mmHg 36%
02:00 +28°C° 0 mm 2 mps 716 mmHg 37%
03:00 +27°C° 0 mm 2 mps 716 mmHg 38%
04:00 +27°C° 0 mm 1 mps 716 mmHg 38%
05:00 +27°C° 0 mm 1 mps 716 mmHg 39%
06:00 +29°C° 0 mm 2 mps 716 mmHg 35%
07:00 +31°C° 0 mm 2 mps 717 mmHg 31%
08:00 +35°C° 0 mm 2 mps 717 mmHg 27%
09:00 +37°C° 0 mm 2 mps 717 mmHg 23%
10:00 +39°C° 0 mm 1 mps 717 mmHg 20%
11:00 +41°C° 0 mm 1 mps 718 mmHg 17%
12:00 +42°C° 0 mm 1 mps 717 mmHg 16%
13:00 +43°C° 0 mm 2 mps 717 mmHg 14%
14:00 +45°C° 0 mm 2 mps 717 mmHg 13%
15:00 +45°C° 0 mm 3 mps 717 mmHg 12%
16:00 +45°C° 0 mm 3 mps 717 mmHg 12%
17:00 +45°C° 0 mm 4 mps 717 mmHg 11%
18:00 +42°C° 0.1 mm 3 mps 717 mmHg 16%
19:00 +38°C° 0.1 mm 3 mps 717 mmHg 21%
20:00 +34°C° 0.1 mm 3 mps 717 mmHg 26%
21:00 +33°C° 0.1 mm 3 mps 717 mmHg 29%
22:00 +31°C° 0.1 mm 2 mps 718 mmHg 32%
23:00 +30°C° 0.1 mm 2 mps 718 mmHg 34%

15 July, Wednesday

Time Temperature Precipitation Wind Pressure Humidity
00:00 +29°C° 0 mm 2 mps 718 mmHg 35%
01:00 +29°C° 0 mm 2 mps 717 mmHg 36%
02:00 +29°C° 0 mm 3 mps 717 mmHg 36%
03:00 +28°C° 0.1 mm 3 mps 717 mmHg 37%
04:00 +28°C° 0.1 mm 3 mps 717 mmHg 38%
05:00 +28°C° 0.1 mm 3 mps 718 mmHg 39%
06:00 +30°C° 0 mm 3 mps 718 mmHg 33%
07:00 +34°C° 0 mm 2 mps 718 mmHg 28%
08:00 +37°C° 0 mm 2 mps 718 mmHg 23%
09:00 +39°C° 0 mm 2 mps 718 mmHg 20%
10:00 +41°C° 0 mm 1 mps 718 mmHg 17%
11:00 +44°C° 0 mm 1 mps 718 mmHg 15%
12:00 +44°C° 0 mm 1 mps 718 mmHg 13%
13:00 +46°C° 0 mm 2 mps 718 mmHg 11%
14:00 +47°C° 0 mm 2 mps 718 mmHg 9%
15:00 +47°C° 0 mm 3 mps 718 mmHg 9%
16:00 +47°C° 0 mm 4 mps 718 mmHg 9%
17:00 +47°C° 0 mm 5 mps 718 mmHg 9%
18:00 +43°C° 0 mm 5 mps 718 mmHg 15%
19:00 +39°C° 0 mm 5 mps 718 mmHg 20%
20:00 +35°C° 0 mm 5 mps 718 mmHg 25%
21:00 +33°C° 0.1 mm 4 mps 718 mmHg 30%
22:00 +32°C° 0.1 mm 4 mps 718 mmHg 34%
23:00 +29°C° 0.1 mm 3 mps 718 mmHg 38%
Show more